Time,TemperatureF,DewpointF,PressureIn,WindDirection,WindDirectionDegrees,WindSpeedMPH,WindSpeedGustMPH,Humidity,HourlyPrecipIn,Conditions,Clouds,dailyrainin,SoftwareType,DateUTC
2013-07-28 00:02:00,61.0,42.0,-100.00,NE,45,2.0,4.0,50,-99.99,,,-99.99,,2013-07-28 07:02:00,
2013-07-28 00:12:00,61.0,42.0,-100.00,NE,45,2.0,4.0,50,-99.99,,,-99.99,,2013-07-28 07:12:00,
2013-07-28 00:22:00,60.0,42.0,-100.00,SW,225,0.0,2.0,51,-99.99,,,-99.99,,2013-07-28 07:22:00,
2013-07-28 00:32:00,59.0,42.0,-100.00,SW,225,0.0,1.0,53,-99.99,,,-99.99,,2013-07-28 07:32:00,
2013-07-28 00:42:00,59.0,42.0,-100.00,South,180,3.0,4.0,54,-99.99,,,-99.99,,2013-07-28 07:42:00,
2013-07-28 00:53:00,59.0,42.0,-100.00,South,180,3.0,4.0,54,-99.99,,,-99.99,,2013-07-28 07:53:00,
2013-07-28 01:02:00,59.0,42.0,-100.00,SW,225,3.0,4.0,54,-99.99,,,-99.99,,2013-07-28 08:02:00,
2013-07-28 01:12:00,59.0,42.0,-100.00,South,180,1.0,5.0,54,-99.99,,,-99.99,,2013-07-28 08:12:00,
2013-07-28 01:22:00,59.0,42.0,-100.00,South,180,1.0,5.0,54,-99.99,,,-99.99,,2013-07-28 08:22:00,
2013-07-28 01:33:00,58.0,41.0,-100.00,South,180,5.0,6.0,54,-99.99,,,-99.99,,2013-07-28 08:33:00,
2013-07-28 01:42:00,57.0,41.0,-100.00,South,180,3.0,6.0,55,-99.99,,,-99.99,,2013-07-28 08:42:00,
2013-07-28 01:53:00,57.0,41.0,-100.00,South,180,3.0,6.0,55,-99.99,,,-99.99,,2013-07-28 08:53:00,
2013-07-28 02:02:00,57.0,41.0,-100.00,South,180,6.0,8.0,55,-99.99,,,-99.99,,2013-07-28 09:02:00,
2013-07-28 02:12:00,56.0,41.0,-100.00,South,180,4.0,8.0,56,-99.99,,,-99.99,,2013-07-28 09:12:00,
2013-07-28 02:22:00,56.0,41.0,-100.00,South,180,4.0,8.0,56,-99.99,,,-99.99,,2013-07-28 09:22:00,
2013-07-28 02:32:00,56.0,41.0,-100.00,South,180,4.0,7.0,56,-99.99,,,-99.99,,2013-07-28 09:32:00,
2013-07-28 02:53:00,56.0,41.0,-100.00,SW,225,6.0,9.0,57,-99.99,,,-99.99,,2013-07-28 09:53:00,
2013-07-28 03:02:00,55.0,40.0,-100.00,South,180,4.0,8.0,57,-99.99,,,-99.99,,2013-07-28 10:02:00,
2013-07-28 03:12:00,55.0,40.0,-100.00,South,180,5.0,8.0,58,-99.99,,,-99.99,,2013-07-28 10:12:00,
2013-07-28 03:22:00,55.0,40.0,-100.00,South,180,5.0,8.0,58,-99.99,,,-99.99,,2013-07-28 10:22:00,
2013-07-28 03:42:00,54.0,40.0,-100.00,SW,225,6.0,10.0,59,-99.99,,,-99.99,,2013-07-28 10:42:00,
2013-07-28 03:53:00,54.0,40.0,-100.00,SW,225,6.0,10.0,59,-99.99,,,-99.99,,2013-07-28 10:53:00,
2013-07-28 04:12:00,54.0,40.0,-100.00,SW,225,9.0,12.0,59,-99.99,,,-99.99,,2013-07-28 11:12:00,
2013-07-28 04:22:00,54.0,40.0,-100.00,SW,225,9.0,12.0,59,-99.99,,,-99.99,,2013-07-28 11:22:00,
2013-07-28 04:33:00,54.0,40.0,-100.00,South,180,8.0,11.0,59,-99.99,,,-99.99,,2013-07-28 11:33:00,
2013-07-28 04:43:00,54.0,40.0,-100.00,SW,225,7.0,12.0,59,-99.99,,,-99.99,,2013-07-28 11:43:00,
2013-07-28 04:54:00,54.0,40.0,-100.00,SW,225,7.0,12.0,59,-99.99,,,-99.99,,2013-07-28 11:54:00,
2013-07-28 05:02:00,54.0,40.0,-100.00,South,180,6.0,12.0,59,-99.99,,,-99.99,,2013-07-28 12:02:00,
2013-07-28 05:12:00,54.0,40.0,-100.00,South,180,6.0,12.0,59,-99.99,,,-99.99,,2013-07-28 12:12:00,
2013-07-28 05:22:00,54.0,40.0,-100.00,SW,225,7.0,11.0,59,-99.99,,,-99.99,,2013-07-28 12:22:00,
2013-07-28 05:33:00,54.0,40.0,-100.00,SW,225,10.0,13.0,59,-99.99,,,-99.99,,2013-07-28 12:33:00,
2013-07-28 05:43:00,54.0,40.0,-100.00,SW,225,10.0,14.0,59,-99.99,,,-99.99,,2013-07-28 12:43:00,
2013-07-28 05:53:00,54.0,40.0,-100.00,SW,225,10.0,14.0,59,-99.99,,,-99.99,,2013-07-28 12:53:00,
2013-07-28 06:02:00,54.0,40.0,-100.00,SW,225,10.0,15.0,59,-99.99,,,-99.99,,2013-07-28 13:02:00,
2013-07-28 06:12:00,54.0,40.0,-100.00,SW,225,9.0,14.0,59,-99.99,,,-99.99,,2013-07-28 13:12:00,
2013-07-28 06:22:00,54.0,40.0,-100.00,SW,225,9.0,14.0,59,-99.99,,,-99.99,,2013-07-28 13:22:00,
2013-07-28 06:32:00,53.0,39.0,-100.00,SW,225,9.0,12.0,59,-99.99,,,-99.99,,2013-07-28 13:32:00,
2013-07-28 06:43:00,53.0,39.0,-100.00,SW,225,9.0,14.0,59,-99.99,,,-99.99,,2013-07-28 13:43:00,
2013-07-28 06:53:00,53.0,39.0,-100.00,SW,225,9.0,14.0,59,-99.99,,,-99.99,,2013-07-28 13:53:00,
2013-07-28 07:22:00,54.0,40.0,-100.00,SW,225,9.0,17.0,60,-99.99,,,-99.99,,2013-07-28 14:22:00,
2013-07-28 07:33:00,54.0,40.0,-100.00,SW,225,9.0,15.0,59,-99.99,,,-99.99,,2013-07-28 14:33:00,
2013-07-28 07:53:00,55.0,41.0,-100.00,SW,225,9.0,14.0,59,-99.99,,,-99.99,,2013-07-28 14:53:00,
2013-07-28 08:02:00,55.0,41.0,-100.00,SW,225,11.0,16.0,59,-99.99,,,-99.99,,2013-07-28 15:02:00,
2013-07-28 08:12:00,55.0,41.0,-100.00,SW,225,11.0,16.0,59,-99.99,,,-99.99,,2013-07-28 15:12:00,
2013-07-28 08:22:00,56.0,41.0,-100.00,SW,225,9.0,13.0,58,-99.99,,,-99.99,,2013-07-28 15:22:00,
2013-07-28 08:32:00,57.0,42.0,-100.00,SW,225,8.0,13.0,57,-99.99,,,-99.99,,2013-07-28 15:32:00,
2013-07-28 08:43:00,57.0,42.0,-100.00,SW,225,8.0,13.0,57,-99.99,,,-99.99,,2013-07-28 15:43:00,
2013-07-28 08:53:00,58.0,43.0,-100.00,SW,225,7.0,12.0,56,-99.99,,,-99.99,,2013-07-28 15:53:00,
2013-07-28 09:12:00,60.0,44.0,-100.00,SW,225,6.0,10.0,55,-99.99,,,-99.99,,2013-07-28 16:12:00,
2013-07-28 09:22:00,61.0,44.0,-100.00,SW,225,6.0,10.0,53,-99.99,,,-99.99,,2013-07-28 16:22:00,
2013-07-28 09:43:00,63.0,43.0,-100.00,South,180,4.0,9.0,48,-99.99,,,-99.99,,2013-07-28 16:43:00,
2013-07-28 19:58:00,76.0,45.0,-100.00,NW,315,8.0,17.0,34,-99.99,,,-99.99,,2013-07-29 02:58:00,
2013-07-28 20:13:00,75.0,45.0,-100.00,NW,315,10.0,17.0,35,-99.99,,,-99.99,,2013-07-29 03:13:00,
2013-07-28 20:22:00,74.0,46.0,-100.00,NW,315,10.0,15.0,37,-99.99,,,-99.99,,2013-07-29 03:22:00,
2013-07-28 20:34:00,73.0,46.0,-100.00,North,0,7.0,16.0,38,-99.99,,,-99.99,,2013-07-29 03:34:00,
2013-07-28 20:45:00,72.0,46.0,-100.00,North,0,6.0,12.0,39,-99.99,,,-99.99,,2013-07-29 03:45:00,
2013-07-28 20:58:00,72.0,46.0,-100.00,North,0,6.0,12.0,39,-99.99,,,-99.99,,2013-07-29 03:58:00,
2013-07-28 21:02:00,71.0,46.0,-100.00,NW,315,8.0,13.0,40,-99.99,,,-99.99,,2013-07-29 04:02:00,
2013-07-28 21:12:00,71.0,46.0,-100.00,NW,315,8.0,13.0,40,-99.99,,,-99.99,,2013-07-29 04:12:00,
2013-07-28 21:22:00,70.0,45.0,-100.00,NW,315,6.0,10.0,41,-99.99,,,-99.99,,2013-07-29 04:22:00,
2013-07-28 21:32:00,69.0,45.0,-100.00,North,0,5.0,10.0,43,-99.99,,,-99.99,,2013-07-29 04:32:00,
2013-07-28 21:43:00,69.0,45.0,-100.00,North,0,5.0,10.0,43,-99.99,,,-99.99,,2013-07-29 04:43:00,
2013-07-28 21:53:00,68.0,45.0,-100.00,North,0,4.0,8.0,44,-99.99,,,-99.99,,2013-07-29 04:53:00,
2013-07-28 22:02:00,67.0,45.0,-100.00,North,0,5.0,8.0,45,-99.99,,,-99.99,,2013-07-29 05:02:00,
2013-07-28 22:12:00,67.0,45.0,-100.00,North,0,5.0,8.0,45,-99.99,,,-99.99,,2013-07-29 05:12:00,
2013-07-28 22:22:00,66.0,45.0,-100.00,NW,315,5.0,8.0,47,-99.99,,,-99.99,,2013-07-29 05:22:00,
2013-07-28 22:32:00,65.0,45.0,-100.00,North,0,4.0,6.0,48,-99.99,,,-99.99,,2013-07-29 05:32:00,
2013-07-28 23:02:00,63.0,45.0,-100.00,North,0,2.0,4.0,51,-99.99,,,-99.99,,2013-07-29 06:02:00,
2013-07-28 23:12:00,63.0,45.0,-100.00,North,0,2.0,4.0,51,-99.99,,,-99.99,,2013-07-29 06:12:00,
2013-07-28 23:22:00,62.0,44.0,-100.00,North,0,1.0,3.0,52,-99.99,,,-99.99,,2013-07-29 06:22:00,
2013-07-28 23:52:00,60.0,44.0,-100.00,East,90,0.0,2.0,55,-99.99,,,-99.99,,2013-07-29 06:52:00,